Simultaneous Nadir Overpasses (SNOs) Predictions

Prediction of SNOs between GOES-14 and NPP Satellite Orbit:

Table of predicted SNOs for the next 14.0 days since TLE Epoch: 5/28/2022
Index Date Time (GOES-14) GOES-14 Lat,Lon NPP Lat,Lon Distance(km) Time Diff (sec)
1 05/28/2022 08:19:54 0.03,-104.45 -0.21,-103.36 123.88 80
2 05/29/2022 20:41:51 0.01,-104.68 -0.88,-108.68 455.98 80
3 05/30/2022 20:20:24 -0.01,-104.67 0.09,-104.13 61.10 80
4 06/02/2022 08:23:24 -0.01,-104.45 0.09,-104.85 45.73 80
5 06/03/2022 08:07:19 0.01,-104.46 -0.94,-100.32 472.30 80
6 06/04/2022 20:26:34 0.02,-104.69 -0.21,-105.63 106.87 80
7 06/05/2022 20:07:48 0.00,-104.69 0.83,-101.09 410.44 80
8 06/07/2022 08:29:34 -0.03,-104.46 0.38,-106.35 214.87 80
9 06/08/2022 08:13:27 -0.02,-104.47 -0.59,-101.80 303.29 80
10 06/09/2022 20:32:43 0.05,-104.72 -0.48,-107.12 274.09 80
11 06/10/2022 20:16:37 0.04,-104.72 0.50,-102.58 243.26 80
